Weather History for Sunlight Mountain, CO

Change the Weather History Date:

Sunday, June 30, 2013

  Actual Average (KRIL) Record (KRIL)
Temperature  
Mean Temperature 61 °F 71 °F  
Max Temperature 69 °F 89 °F 102 °F (1990)
Min Temperature 53 °F 52 °F 32 °F (1953)
Degree Days  
Heating Degree Days 4 0  
Month to date heating degree days 57  
Since 1 June heating degree days 59  
Since 1 July heating degree days 6625  
Cooling Degree Days 0 6  
Month to date cooling degree days 95  
Year to date cooling degree days 102  
Since 1 June cooling degree days 95  
Growing Degree Days 11 (Base 50)    
Moisture  
Dew Point 39 °F    
Average Humidity 46    
Maximum Humidity 62    
Minimum Humidity 28    
Precipitation  
Precipitation 0.00 in 0.02 in 0.36 in (2011)
Month to date precipitation 1.02  
Year to date precipitation 6.44  
Sea Level Pressure  
Sea Level Pressure 30.59 in    
Wind  
Wind Speed 3 mph (North)    
Max Wind Speed 9 mph    
Max Gust Speed 16 mph    
Visibility 9 miles    
Events Rain    
T = Trace of Precipitation, MM = Missing Value Source: NWS Daily Summary

Daily Weather History Graph

Daily Weather History Graph

Search for Another Location

Airport:

Trip Planner

Search our weather history database for the weather conditions in past years. The results will help you decide how hot, cold, wet, or windy it might be!

Date:

Astronomy

Jun. 30, 2013 Rise Set
Actual Time 5:45 AM MDT 8:40 PM MDT
Civil Twilight 5:13 AM MDT 9:12 PM MDT
Nautical Twilight 4:32 AM MDT 9:53 PM MDT
Astronomical Twilight 3:45 AM MDT 10:40 PM MDT
Moon 12:44 AM MDT (6/30) 1:59 PM MDT (6/30)
Length of Visible Light 15h 59m
Length of Day
14h 54m
Last Quarter, 45% of the Moon is Illuminated
Jun 30
Last Quarter
Jul 8
New
Jul 15
First Quarter
Jul 22
Full
Jul 29
Last Quarter

Hourly Weather History & Observations

Time (MDT) Temp. Dew Point Humidity Pressure Visibility Wind Dir Wind Speed Gust Speed Precip Events Conditions
12:18 AM 57.2 °F 39.2 °F 51% 30.61 in 10.0 mi NE 3.5 mph - N/A   Overcast
12:39 AM 55.4 °F 37.4 °F 51% 30.61 in 10.0 mi NE 4.6 mph - N/A   Scattered Clouds
12:59 AM 55.4 °F 39.2 °F 54% 30.61 in 10.0 mi NE 5.8 mph - N/A   Clear
1:19 AM 55.4 °F 39.2 °F 54% 30.61 in 10.0 mi NE 5.8 mph - N/A   Clear
1:38 AM 53.6 °F 39.2 °F 58% 30.60 in 7.0 mi NE 5.8 mph - N/A   Clear
1:59 AM 53.6 °F 39.2 °F 58% 30.59 in 7.0 mi NE 5.8 mph - N/A   Clear
2:18 AM 53.6 °F 41.0 °F 62% 30.59 in 10.0 mi NE 5.8 mph - N/A   Clear
2:39 AM 53.6 °F 39.2 °F 58% 30.59 in 7.0 mi ENE 3.5 mph - N/A   Clear
2:58 AM 55.4 °F 37.4 °F 51% 30.59 in 7.0 mi Calm Calm - N/A   Clear
3:19 AM 59.0 °F 35.6 °F 42% 30.58 in 10.0 mi Calm Calm - N/A   Clear
3:39 AM 57.2 °F 37.4 °F 48% 30.58 in 7.0 mi Calm Calm - N/A   Clear
3:59 AM 55.4 °F 35.6 °F 47% 30.58 in 7.0 mi Calm Calm - N/A   Clear
4:19 AM 55.4 °F 35.6 °F 47% 30.58 in 7.0 mi Calm Calm - N/A   Clear
4:38 AM 57.2 °F 37.4 °F 48% 30.58 in 7.0 mi Calm Calm - N/A   Clear
4:59 AM 55.4 °F 35.6 °F 47% 30.58 in 10.0 mi Calm Calm - N/A   Clear
5:19 AM 55.4 °F 35.6 °F 47% 30.58 in 10.0 mi Calm Calm - N/A   Clear
5:39 AM 57.2 °F 35.6 °F 44% 30.59 in 10.0 mi Calm Calm - N/A   Clear
5:59 AM 55.4 °F 37.4 °F 51% 30.59 in 7.0 mi Calm Calm - N/A   Clear
6:19 AM 55.4 °F 37.4 °F 51% 30.60 in 7.0 mi WSW 3.5 mph - N/A   Clear
6:39 AM 55.4 °F 37.4 °F 51% 30.60 in 7.0 mi WSW 3.5 mph - N/A   Clear
6:59 AM 55.4 °F 37.4 °F 51% 30.60 in 7.0 mi Calm Calm - N/A   Clear
7:18 AM 57.2 °F 37.4 °F 48% 30.60 in 7.0 mi Calm Calm - N/A   Clear
7:39 AM 59.0 °F 37.4 °F 45% 30.61 in 7.0 mi NNW 3.5 mph - N/A   Clear
7:59 AM 59.0 °F 37.4 °F 45% 30.61 in 7.0 mi NNW 4.6 mph - N/A   Scattered Clouds
8:17 AM 59.0 °F 37.4 °F 45% 30.61 in 7.0 mi WNW 4.6 mph - N/A   Scattered Clouds
8:39 AM 60.8 °F 39.2 °F 45% 30.62 in 10.0 mi NW 3.5 mph - N/A   Mostly Cloudy
8:59 AM 59.0 °F 39.2 °F 48% 30.62 in 7.0 mi NW 3.5 mph - N/A   Overcast
9:19 AM 60.8 °F 41.0 °F 48% 30.62 in 7.0 mi West 4.6 mph - N/A   Mostly Cloudy
9:38 AM 60.8 °F 39.2 °F 45% 30.62 in 7.0 mi WNW 4.6 mph - N/A   Scattered Clouds
9:58 AM 60.8 °F 41.0 °F 48% 30.62 in 10.0 mi Calm Calm - N/A   Clear
10:19 AM 62.6 °F 41.0 °F 45% 30.62 in 10.0 mi NW 5.8 mph - N/A   Scattered Clouds
10:39 AM 62.6 °F 41.0 °F 45% 30.62 in 10.0 mi NW 3.5 mph - N/A   Scattered Clouds
10:58 AM 62.6 °F 42.8 °F 48% 30.62 in 10.0 mi Calm Calm - N/A   Mostly Cloudy
11:19 AM 62.6 °F 41.0 °F 45% 30.62 in 10.0 mi NW 3.5 mph - N/A   Mostly Cloudy
11:39 AM 62.6 °F 42.8 °F 48% 30.62 in 10.0 mi NNW 4.6 mph - N/A   Mostly Cloudy
11:59 AM 64.4 °F 42.8 °F 45% 30.62 in 10.0 mi NNW 3.5 mph - N/A   Overcast
12:16 PM 64.4 °F 37.4 °F 37% 30.61 in 10.0 mi WNW 3.5 mph - N/A   Overcast
12:39 PM 62.6 °F 41.0 °F 45% 30.62 in 10.0 mi Calm Calm - N/A   Overcast
12:56 PM 62.6 °F 41.0 °F 45% 30.62 in 10.0 mi NNW 3.5 mph - N/A   Mostly Cloudy
1:18 PM 64.4 °F 41.0 °F 42% 30.61 in 7.0 mi NNW 4.6 mph - N/A   Mostly Cloudy
1:39 PM 64.4 °F 41.0 °F 42% 30.60 in 10.0 mi NNW 4.6 mph - N/A   Overcast
1:59 PM 68.0 °F 37.4 °F 33% 30.60 in 10.0 mi NW 6.9 mph - N/A   Scattered Clouds
2:19 PM 68.0 °F 37.4 °F 33% 30.59 in 10.0 mi WNW 5.8 mph - N/A   Mostly Cloudy
2:39 PM 68.0 °F 37.4 °F 33% 30.59 in 10.0 mi NNW 6.9 mph - N/A   Mostly Cloudy
2:59 PM 68.0 °F 37.4 °F 33% 30.59 in 10.0 mi NW 4.6 mph - N/A   Mostly Cloudy
3:19 PM 64.4 °F 41.0 °F 42% 30.58 in 7.0 mi NNE 9.2 mph 16.1 mph N/A Rain Light Rain
3:39 PM 62.6 °F 39.2 °F 42% 30.58 in 7.0 mi North 3.5 mph - N/A   Mostly Cloudy
3:59 PM 68.0 °F 37.4 °F 33% 30.57 in 7.0 mi NNW 5.8 mph - N/A   Scattered Clouds
4:19 PM 66.2 °F 37.4 °F 35% 30.57 in 7.0 mi Calm Calm - N/A   Mostly Cloudy
4:36 PM 68.0 °F 41.0 °F 37% 30.56 in 7.0 mi North 4.6 mph - N/A   Mostly Cloudy
4:59 PM 69.8 °F 35.6 °F 28% 30.56 in 7.0 mi WNW 3.5 mph - N/A   Clear
5:17 PM 69.8 °F 37.4 °F 31% 30.55 in 10.0 mi North 5.8 mph - N/A   Mostly Cloudy
5:39 PM 69.8 °F 37.4 °F 31% 30.55 in 10.0 mi North 3.5 mph - N/A   Scattered Clouds
5:58 PM 66.2 °F 37.4 °F 35% 30.55 in 10.0 mi North 6.9 mph - N/A   Scattered Clouds
6:19 PM 69.8 °F 37.4 °F 31% 30.55 in 10.0 mi NE 4.6 mph - N/A   Mostly Cloudy
6:39 PM 68.0 °F 39.2 °F 35% 30.55 in 10.0 mi NNE 3.5 mph - N/A   Scattered Clouds
6:59 PM 64.4 °F 39.2 °F 40% 30.55 in 10.0 mi NNE 3.5 mph - N/A   Clear
7:19 PM 62.6 °F 41.0 °F 45% 30.55 in 10.0 mi Calm Calm - N/A   Scattered Clouds
7:39 PM 62.6 °F 41.0 °F 45% 30.56 in 10.0 mi Calm Calm - N/A   Mostly Cloudy
7:59 PM 62.6 °F 39.2 °F 42% 30.56 in 10.0 mi Calm Calm - N/A   Scattered Clouds
8:19 PM 60.8 °F 41.0 °F 48% 30.56 in 10.0 mi Calm Calm - N/A   Scattered Clouds
8:38 PM 59.0 °F 39.2 °F 48% 30.57 in 7.0 mi Calm Calm - N/A   Clear
8:58 PM 59.0 °F 39.2 °F 48% 30.57 in 7.0 mi Calm Calm - N/A   Clear
9:19 PM 59.0 °F 37.4 °F 45% 30.59 in 10.0 mi Calm Calm - N/A   Clear
9:39 PM 59.0 °F 37.4 °F 45% 30.59 in 10.0 mi Calm Calm - N/A   Clear
9:59 PM 59.0 °F 39.2 °F 48% 30.60 in 10.0 mi NE 3.5 mph - N/A   Clear
10:19 PM 59.0 °F 39.2 °F 48% 30.60 in 10.0 mi Calm Calm - N/A   Clear
10:38 PM 57.2 °F 41.0 °F 55% 30.60 in 10.0 mi Calm Calm - N/A   Clear
10:59 PM 55.4 °F 41.0 °F 58% 30.61 in 7.0 mi NE 3.5 mph - N/A   Clear
11:19 PM 55.4 °F 41.0 °F 58% 30.61 in 7.0 mi ENE 4.6 mph - N/A   Clear
11:38 PM 55.4 °F 41.0 °F 58% 30.61 in 7.0 mi ENE 4.6 mph - N/A   Clear
11:58 PM 53.6 °F 41.0 °F 62% 30.62 in 7.0 mi Calm Calm - N/A   Clear